Location: Walnut Point State Park
(39.6958°N, 88.0345°W)
Time: 11:21:07
(UTC-05:00)

Amateur Radio Satellites - All Passes

Search period start: 29 May 2015 10:51
Search period end: 30 May 2015 10:51
Location: Walnut Point State Park, 39.6958°N, 88.0345°W

Satellite Date Start Highest point End Downlink Frequencies (MHz)
Time Altitude Azimuth
UWE-3 29 May 10:52:01 10:56:24 82° 283° (WNW) 11:00:37 435.000/436.395/437.385
FUNcube-1 29 May 10:55:01 10:59:20 82° 104° (ESE) 11:03:31 145.935
UNISAT 6 29 May 11:06:17 11:10:50 50° 261° (W) 11:15:21 437.425
AISAT 29 May 11:06:40 11:10:23 26° 95° (E) 11:14:09 437.250
NANOSAT C BR1 29 May 11:06:51 11:11:06 75° 76° (ENE) 11:15:24 145.865
GOMX 1 29 May 11:09:11 11:10:29 11° 300° (WNW) 11:11:27 467.674
HUMSAT D 29 May 11:09:26 11:13:30 53° 99° (E) 11:17:30 437.325/437.525
CINEMA 3 29 May 11:13:35 11:17:09 21° 293° (WNW) 11:20:29 145.822/145.860
GONETS M04 29 May 11:15:39 11:17:31 11° 76° (ENE) 11:20:11
QB50P2 29 May 11:16:50 11:21:07 81° 257° (WSW) 11:25:27 145.880/145.840
SO-50 29 May 11:21:18 11:26:11 53° 54° (NE) 11:30:58 436.795
DUCHIFAT 1 29 May 11:28:14 11:32:28 63° 259° (W) 11:36:44 145.980
POPSAT HIP 1 29 May 11:28:30 11:32:44 61° 259° (W) 11:37:02 437.405
50 SAT 29 May 11:29:16 11:33:02 48° 99° (E) 11:36:46 437.505
UKube-1 29 May 11:32:52 11:37:15 89° 284° (WNW) 11:41:35 .
ZACube-1 29 May 11:37:06 11:40:58 32° 289° (WNW) 11:44:41 437.345
BUGSAT 1 29 May 11:39:25 11:43:33 68° 258° (WSW) 11:47:46 437.445
Oscar 11 29 May 11:44:22 11:47:10 17° 293° (WNW) 11:49:49 145.826/435.025
DX 1 29 May 11:45:36 11:49:57 59° 286° (WNW) 11:54:15 434.975-435.025
CUBEBUG 2 29 May 11:47:53 11:50:50 17° 294° (WNW) 11:53:36 437.445
ANTELSAT 29 May 11:51:24 11:54:38 18° 269° (W) 11:57:41 437.575/2403.000
Oscar 19 29 May 11:55:51 11:56:44 11° 60° (ENE) 11:57:57 437.125/150
CUBEBUG 1 29 May 12:00:32 12:04:52 50° 99° (E) 12:09:11 437.445
Cosmos 2504 29 May 12:03:37 12:09:21 19° 295° (WNW) 12:14:28 435.465 / 435.565
VELOX 1 29 May 12:09:58 12:14:26 66° 285° (WNW) 12:18:50 145.980
DANDE 29 May 12:12:35 12:18:57 34° 86° (E) 12:26:20 436.750
QB50P1 29 May 12:13:37 12:16:48 19° 268° (W) 12:19:52 145.935-145.965
POLYITAN 1 29 May 12:17:21 12:20:21 18° 268° (W) 12:23:13 437.675
ESTCUBE 1 29 May 12:23:11 12:27:44 80° 284° (WNW) 12:32:16 437.505/2401.250
CUSAT 1 29 May 12:24:55 12:32:06 52° 92° (E) 12:40:08 437.405
SPROUT 29 May 12:29:27 12:33:10 28° 95° (E) 12:36:55 437.525
TISAT 1 29 May 12:42:19 12:45:57 27° 95° (E) 12:49:37 437.305
AISAT 29 May 12:43:04 12:46:58 29° 290° (WNW) 12:50:46 437.250
HUMSAT D 29 May 12:46:56 12:48:50 13° 295° (WNW) 12:50:33 437.325/437.525
SO-50 29 May 13:02:52 13:06:21 19° 250° (WSW) 13:09:40 436.795
RS-15 29 May 13:03:17 13:10:49 19° 351° (N) 13:18:25 29.354- 29.394
GONETS M04 29 May 13:04:12 13:12:55 69° 93° (E) 13:21:42
50 SAT 29 May 13:05:47 13:07:22 12° 294° (WNW) 13:08:45 437.505
Gurwin Techsat 1B 29 May 13:07:14 13:09:59 15° 62° (ENE) 13:12:58 435.225
BEESAT 29 May 13:21:56 13:23:35 12° 88° (E) 13:25:30 436.000
SWISSCUBE 29 May 13:29:49 13:32:43 16° 91° (E) 13:35:49 437.505
Oscar 19 29 May 13:30:11 13:35:22 83° 76° (ENE) 13:40:37 437.125/150
CUBEBUG 1 29 May 13:38:08 13:40:51 16° 294° (WNW) 13:43:23 437.445
ITAMSAT 1 29 May 13:50:48 13:55:31 38° 70° (ENE) 14:00:20 435.822/435.867
DANDE 29 May 13:54:36 14:01:50 53° 287° (WNW) 14:10:08 436.750
SPROUT 29 May 14:05:36 14:09:09 24° 291° (WNW) 14:12:37 437.525
CUSAT 1 29 May 14:08:10 14:15:08 35° 292° (WNW) 14:22:33 437.405
AO-7 29 May 14:09:36 14:15:01 20° 54° (NE) 14:20:48 29.400- 29.500
O/OREOS (USA 219) 29 May 14:15:12 14:17:46 15° 101° (E) 14:20:30 437.305
TISAT 1 29 May 14:18:09 14:21:39 24° 291° (WNW) 14:25:02 437.305
JAS-2 29 May 14:23:13 14:26:58 17° 64° (ENE) 14:30:45 435.910
Cosmos 2499 29 May 14:28:47 14:36:15 44° 91° (E) 14:43:19 435.465 / 435.565
Gurwin Techsat 1B 29 May 14:44:07 14:49:25 73° 258° (WSW) 14:54:45 435.225
ITUPSAT 1 29 May 14:51:18 14:56:07 80° 283° (WNW) 15:00:54 437.325
BEESAT 29 May 14:57:13 15:01:59 68° 285° (WNW) 15:06:43 436.000
GONETS M04 29 May 15:03:27 15:10:38 26° 294° (WNW) 15:17:33
SWISSCUBE 29 May 15:06:17 15:10:55 50° 288° (WNW) 15:15:32 437.505
Oscar 19 29 May 15:14:07 15:15:30 11° 273° (W) 15:16:29 437.125/150
STARS 29 May 15:14:20 15:17:29 20° 93° (E) 15:20:45 437.465
RS-15 29 May 15:19:47 15:28:45 26° 26° (NNE) 15:38:17 29.354- 29.394
ITAMSAT 1 29 May 15:30:56 15:35:10 25° 266° (W) 15:39:19 435.822/435.867
HORYU 2 29 May 15:42:58 15:47:27 78° 76° (ENE) 15:51:56 437.375
DANDE 29 May 15:45:11 15:47:31 11° 309° (NW) 15:49:15 436.750
O/OREOS (USA 219) 29 May 15:52:29 15:56:50 47° 296° (WNW) 16:01:11 437.305
KKS-1 29 May 15:52:30 15:57:00 86° 103° (ESE) 16:01:27 437.445
AO-7 29 May 15:58:32 16:06:51 88° 71° (ENE) 16:15:13 29.400- 29.500
JAS-2 29 May 16:05:04 16:11:43 74° 257° (WSW) 16:17:35 435.910
Cosmos 2499 29 May 16:22:20 16:29:32 34° 287° (WNW) 16:36:11 435.465 / 435.565
BEESAT 3 29 May 16:36:54 16:39:54 21° 112° (ESE) 16:43:01 437.485
Cubesat XI-IV 29 May 16:48:55 16:50:52 12° 61° (ENE) 16:53:05 437.490
STARS 29 May 16:50:01 16:54:05 36° 289° (WNW) 16:58:05 437.465
YUBILEINY 29 May 16:51:54 16:56:49 17° 60° (ENE) 17:02:15 435.215
BEESAT 2 29 May 17:28:27 17:32:30 62° 119° (ESE) 17:36:36 435.950
RS-15 29 May 17:32:15 17:43:52 70° 54° (NE) 17:55:59 29.354- 29.394
AIST 2 29 May 17:38:01 17:41:14 22° 112° (ESE) 17:44:33 435.215
MOZHAYETS 4 29 May 17:42:13 17:46:48 77° 284° (WNW) 17:51:21
CUBESAT XI-V 29 May 17:54:52 17:55:50 11° 87° (E) 17:57:08 437.345
AO-7 29 May 17:55:23 18:00:49 18° 271° (W) 18:05:48 29.400- 29.500
CUTE-I 29 May 18:03:36 18:08:47 59° 73° (ENE) 18:14:02 437.470
BEESAT 3 29 May 18:13:55 18:17:41 35° 308° (NW) 18:21:29 437.485
Cubesat XI-IV 29 May 18:24:59 18:30:18 88° 255° (WSW) 18:35:40 437.490
STRAND 1 29 May 18:45:02 18:47:58 16° 90° (E) 18:51:09 437.568
YUBILEINY 29 May 18:46:31 18:55:16 85° 82° (E) 19:03:59 435.215
Cosmos 2491 29 May 18:50:02 18:58:17 49° 90° (E) 19:06:42 435.465 / 435.565
GOMX 1 29 May 18:59:47 19:01:58 13° 61° (ENE) 19:04:29 467.674
BEESAT 2 29 May 19:08:31 19:11:02 15° 317° (NW) 19:13:26 435.950
BRITE-PL 29 May 19:10:14 19:14:22 25° 66° (ENE) 19:18:49 437.365/2234.400
HO-68 29 May 19:12:13 19:17:16 22° 59° (ENE) 19:22:34 435.675
AIST 2 29 May 19:15:39 19:19:37 36° 308° (NW) 19:23:35 435.215
AIST 1 29 May 19:20:19 19:21:27 11° 86° (E) 19:22:51
CUBESAT XI-V 29 May 19:29:10 19:33:53 72° 284° (WNW) 19:38:35 437.345
PRISM 29 May 19:35:07 19:39:13 55° 101° (E) 19:43:18 437.425
DOVE 4 29 May 19:44:01 19:47:53 22° 66° (ENE) 19:51:58 437.250
RS-15 29 May 19:45:33 19:55:42 34° 253° (WSW) 20:05:48 29.354- 29.394
M-CUBED/EXP-1 PRIME 29 May 19:45:52 19:48:04 17° 99° (E) 19:50:24 437.505
CUTE-I 29 May 19:45:55 19:49:21 17° 270° (W) 19:52:32 437.470
AUBIESAT-1 29 May 19:51:06 19:53:18 17° 99° (E) 19:55:38 437.475
Cosmos 2504 29 May 20:01:03 20:06:34 24° 68° (ENE) 20:12:19 435.465 / 435.565
STRAND 1 29 May 20:22:34 20:27:39 59° 286° (WNW) 20:32:41 437.568
GOMX 1 29 May 20:34:07 20:39:20 87° 257° (WSW) 20:44:50 467.674
CINEMA 3 29 May 20:36:10 20:40:37 34° 70° (ENE) 20:45:09 145.822/145.860
CANX-2 29 May 20:38:24 20:42:39 73° 77° (ENE) 20:46:55 2200.000
CUTE 1.7 + AOD 2 29 May 20:41:29 20:45:43 71° 76° (ENE) 20:49:58 437.475
YUBILEINY 29 May 20:45:28 20:51:07 18° 280° (W) 20:56:16 435.215
Cosmos 2491 29 May 20:47:25 20:55:26 36° 289° (WNW) 21:03:20 435.465 / 435.565
BRITE-PL 29 May 20:47:41 20:52:35 43° 264° (W) 20:57:49 437.365/2234.400
AIST 1 29 May 20:54:28 20:58:38 54° 280° (W) 21:02:52
ZACube-1 29 May 20:56:56 20:59:48 17° 67° (ENE) 21:02:48 437.345
HO-68 29 May 20:57:11 21:04:22 74° 256° (WSW) 21:11:35 435.675
SEEDS 29 May 20:59:13 21:03:27 88° 255° (WSW) 21:07:41 437.485
Oscar 11 29 May 21:01:20 21:05:06 30° 71° (ENE) 21:08:54 145.826/435.025
CUBEBUG 2 29 May 21:07:16 21:11:33 34° 71° (ENE) 21:15:51 437.445
COMPASS 1 29 May 21:07:30 21:11:41 88° 257° (WSW) 21:15:52 437.405
DX 1 29 May 21:08:19 21:08:43 10° 63° (ENE) 21:09:23 434.975-435.025
PRISM 29 May 21:12:20 21:14:15 13° 295° (WNW) 21:15:59 437.425
AAUSAT CUBESAT 2 29 May 21:16:58 21:21:08 80° 258° (WSW) 21:25:19 437.432
M-CUBED/EXP-1 PRIME 29 May 21:20:19 21:22:59 22° 294° (WNW) 21:25:36 437.505
DOVE 4 29 May 21:20:19 21:25:18 47° 263° (W) 21:30:25 437.250
DELFI C3 29 May 21:23:52 21:27:34 36° 73° (ENE) 21:31:18 145.870
AUBIESAT-1 29 May 21:25:28 21:28:09 22° 294° (WNW) 21:30:48 437.475
UWE-3 29 May 21:47:35 21:52:15 73° 76° (ENE) 21:56:55 435.000/436.395/437.385
FUNcube-1 29 May 21:49:21 21:53:50 58° 75° (ENE) 21:58:20 145.935
Cosmos 2504 29 May 21:53:28 22:00:28 57° 268° (W) 22:07:29 435.465 / 435.565
HUMSAT D 29 May 22:00:18 22:04:11 34° 72° (ENE) 22:08:07 437.325/437.525
AISAT 29 May 22:04:04 22:07:25 22° 68° (ENE) 22:10:54 437.250
50 SAT 29 May 22:13:23 22:16:40 26° 71° (ENE) 22:20:01 437.505
CINEMA 3 29 May 22:13:32 22:17:49 27° 266° (W) 22:22:03 145.822/145.860
UKube-1 29 May 22:26:39 22:30:56 69° 75° (ENE) 22:35:16 .
ZACube-1 29 May 22:31:22 22:35:50 47° 262° (W) 22:40:14 437.345
Oscar 11 29 May 22:37:52 22:41:19 22° 267° (W) 22:44:41 145.826/435.025
TIGRISAT 29 May 22:38:14 22:41:18 19° 92° (E) 22:44:27 435.000
DX 1 29 May 22:40:03 22:44:25 77° 259° (WSW) 22:48:48 434.975-435.025
ISS 29 May 22:42:40 22:45:55 83° 326° (NNW) 22:49:10 145.825
CUBEBUG 2 29 May 22:44:23 22:48:18 24° 267° (W) 22:52:05 437.445
HO-68 29 May 22:51:21 22:53:28 11° 275° (W) 22:54:57 435.675
NANOSAT C BR1 29 May 22:54:30 22:56:20 13° 89° (E) 22:58:23 145.865
CUBEBUG 1 29 May 22:55:55 22:59:55 37° 71° (ENE) 23:03:59 437.445
DANDE 29 May 22:56:43 23:02:36 25° 62° (ENE) 23:07:40 436.750
UNISAT 6 29 May 22:59:25 23:03:24 34° 97° (E) 23:07:19 437.425
DELFI C3 29 May 23:00:19 23:02:51 16° 268° (W) 23:05:15 145.870
QB50P2 29 May 23:04:07 23:06:56 17° 92° (E) 23:09:52 145.880/145.840
VELOX 1 29 May 23:06:27 23:10:53 83° 257° (WSW) 23:15:22 145.980
CUSAT 1 29 May 23:06:36 23:12:44 34° 67° (ENE) 23:17:39 437.405
DUCHIFAT 1 29 May 23:14:30 23:17:45 21° 93° (E) 23:21:05 145.980
POPSAT HIP 1 29 May 23:15:10 23:18:31 23° 94° (E) 23:21:55 437.405
GONETS M04 29 May 23:16:04 23:23:38 32° 69° (ENE) 23:31:18
ESTCUBE 1 29 May 23:21:48 23:26:17 85° 76° (ENE) 23:30:48 437.505/2401.250
SPROUT 29 May 23:23:20 23:26:30 21° 68° (ENE) 23:29:47 437.525
BUGSAT 1 29 May 23:23:24 23:26:22 19° 92° (E) 23:29:25 437.445
PCSat 29 May 23:26:42 23:30:52 24° 108° (ESE) 23:35:11 145.827
UWE-3 29 May 23:28:12 23:29:21 11° 273° (W) 23:30:11 435.000/436.395/437.385
FUNcube-1 29 May 23:28:22 23:30:35 13° 271° (W) 23:32:34 145.935
TISAT 1 29 May 23:34:15 23:37:16 20° 68° (ENE) 23:40:24 437.305
HUMSAT D 29 May 23:36:51 23:40:03 19° 267° (W) 23:43:08 437.325/437.525
AISAT 29 May 23:39:46 23:43:50 34° 263° (W) 23:47:54 437.250
ANTELSAT 29 May 23:42:37 23:46:58 75° 284° (WNW) 23:51:13 437.575/2403.000
50 SAT 29 May 23:48:09 23:51:21 22° 266° (W) 23:54:28 437.505
QB50P1 29 May 23:58:09 00:02:26 72° 102° (ESE) 00:06:40 145.935-145.965
VERMONT LUNAR 30 May 00:00:17 00:02:45 20° 151° (SSE) 00:05:14 437.305
POLYITAN 1 30 May 00:01:58 00:06:16 81° 102° (ESE) 00:10:31 437.675
TIGRISAT 30 May 00:14:14 00:18:12 34° 289° (WNW) 00:22:03 435.000
ISS 30 May 00:20:33 00:22:45 17° 341° (NNW) 00:24:55 145.825
ITUPSAT 1 30 May 00:22:58 00:24:37 12° 63° (ENE) 00:26:31 437.325
Cosmos 2499 30 May 00:23:23 00:25:21 11° 59° (ENE) 00:27:50 435.465 / 435.565
O/OREOS (USA 219) 30 May 00:24:16 00:28:03 27° 60° (ENE) 00:31:53 437.305
BEESAT 30 May 00:27:51 00:30:08 14° 64° (ENE) 00:32:38 436.000
NANOSAT C BR1 30 May 00:28:23 00:32:33 51° 287° (WNW) 00:36:39 145.865
CUBEBUG 1 30 May 00:33:18 00:36:27 19° 268° (W) 00:39:28 437.445
SWISSCUBE 30 May 00:35:57 00:39:04 18° 66° (ENE) 00:42:21 437.505
UNISAT 6 30 May 00:36:45 00:39:59 20° 293° (WNW) 00:43:03 437.425
QB50P2 30 May 00:39:02 00:43:01 37° 288° (WNW) 00:46:55 145.880/145.840
DANDE 30 May 00:39:17 00:46:36 57° 267° (W) 00:52:12 436.750
CUSAT 1 30 May 00:49:25 00:55:23 34° 273° (W) 01:00:01 437.405
DUCHIFAT 1 30 May 00:49:51 00:53:37 30° 290° (WNW) 00:57:18 145.980
POPSAT HIP 1 30 May 00:50:40 00:54:25 29° 290° (WNW) 00:58:04 437.405
BEESAT 3 30 May 00:56:38 00:58:28 13° 41° (NE) 01:00:27 437.485
BUGSAT 1 30 May 00:58:03 01:01:58 35° 289° (WNW) 01:05:48 437.445
SPROUT 30 May 00:58:26 01:02:23 34° 263° (W) 01:06:20 437.525
PHONESAT 2.4 30 May 01:08:01 01:10:35 20° 150° (SSE) 01:13:12 2401.200-2431.200
PCSat 30 May 01:08:49 01:14:02 46° 304° (NW) 01:19:15 145.827
TISAT 1 30 May 01:08:55 01:12:49 34° 263° (W) 01:16:44 437.305
GONETS M04 30 May 01:12:27 01:20:56 54° 269° (W) 01:29:16
SO-50 30 May 01:36:07 01:39:25 20° 111° (ESE) 01:42:57 436.795
VERMONT LUNAR 30 May 01:36:25 01:39:39 74° 166° (SSE) 01:42:52 437.305
QB50P1 30 May 01:37:00 01:37:46 10° 296° (WNW) 01:38:17 145.935-145.965
Oscar 19 30 May 01:43:03 01:47:34 31° 95° (E) 01:52:07 437.125/150
BEESAT 2 30 May 01:48:40 01:52:19 30° 50° (NE) 01:55:56 435.950
ITUPSAT 1 30 May 01:57:12 02:01:57 76° 258° (WSW) 02:06:45 437.325
ISS 30 May 01:59:42 02:00:13 10° 1° (N) 02:00:44 145.825
AIST 2 30 May 02:00:38 02:02:54 14° 41° (NE) 02:05:18 435.215
BEESAT 30 May 02:02:46 02:07:30 65° 259° (W) 02:12:15 436.000
O/OREOS (USA 219) 30 May 02:03:37 02:07:26 27° 256° (WSW) 02:11:11 437.305
ITAMSAT 1 30 May 02:05:50 02:08:27 14° 89° (E) 02:11:22 435.822/435.867
STARS 30 May 02:11:02 02:13:49 17° 66° (ENE) 02:16:46 437.465
SWISSCUBE 30 May 02:12:01 02:16:36 47° 261° (W) 02:21:12 437.505
Cosmos 2499 30 May 02:12:53 02:19:58 77° 82° (E) 02:27:14 435.465 / 435.565
BEESAT 3 30 May 02:32:56 02:37:01 75° 240° (WSW) 02:41:00 437.485
PHONESAT 2.4 30 May 02:44:54 02:48:22 70° 165° (SSE) 02:51:51 2401.200-2431.200
KKS-1 30 May 02:49:34 02:54:01 70° 76° (ENE) 02:58:31 437.445
Gurwin Techsat 1B 30 May 03:01:14 03:06:22 48° 99° (E) 03:11:30 435.225
VERMONT LUNAR 30 May 03:13:39 03:16:53 75° 2° (N) 03:20:05 437.305
SO-50 30 May 03:15:06 03:19:39 47° 308° (NW) 03:24:20 436.795
JAS-2 30 May 03:17:57 03:19:11 11° 88° (E) 03:20:48 435.910
Oscar 19 30 May 03:22:24 03:26:53 30° 292° (WNW) 03:31:17 437.125/150
BEESAT 2 30 May 03:26:56 03:30:17 24° 247° (WSW) 03:33:31 435.950
ISS 30 May 03:35:18 03:37:39 18° 21° (NNE) 03:40:02 145.825
HORYU 2 30 May 03:36:25 03:39:00 16° 91° (E) 03:41:44 437.375
AIST 2 30 May 03:37:48 03:42:01 70° 241° (WSW) 03:46:07 435.215
ITAMSAT 1 30 May 03:43:19 03:48:31 66° 287° (WNW) 03:53:42 435.822/435.867
STARS 30 May 03:45:41 03:49:57 45° 261° (W) 03:54:14 437.465
AO-7 30 May 04:01:41 04:08:47 31° 95° (E) 04:16:04 29.400- 29.500
Cosmos 2499 30 May 04:08:11 04:12:23 16° 277° (W) 04:16:14 435.465 / 435.565
PHONESAT 2.4 30 May 04:23:02 04:26:31 76° 359° (N) 04:30:00 2401.200-2431.200
KKS-1 30 May 04:30:38 04:31:14 10° 272° (W) 04:31:32 437.445
Gurwin Techsat 1B 30 May 04:42:01 04:46:03 22° 295° (WNW) 04:49:55 435.225
MOZHAYETS 4 30 May 04:43:04 04:47:39 89° 77° (ENE) 04:52:15
VERMONT LUNAR 30 May 04:50:54 04:54:02 53° 199° (SSW) 04:57:10 437.305
CUBESAT XI-V 30 May 04:58:42 04:59:18 10° 63° (ENE) 05:00:12 437.345
JAS-2 30 May 04:59:50 05:05:01 76° 285° (WNW) 05:10:28 435.910
Cosmos 2491 30 May 05:02:02 05:08:29 23° 64° (ENE) 05:15:14 435.465 / 435.565
ISS 30 May 05:11:08 05:14:25 80° 219° (SW) 05:17:40 145.825
HORYU 2 30 May 05:11:42 05:15:56 45° 287° (WNW) 05:20:08 437.375
YUBILEINY 30 May 05:53:18 05:58:41 19° 81° (E) 06:04:32 435.215
AO-7 30 May 05:53:51 06:02:01 58° 293° (WNW) 06:10:06 29.400- 29.500
STRAND 1 30 May 06:00:01 06:03:47 22° 66° (ENE) 06:07:42 437.568
PHONESAT 2.4 30 May 06:01:13 06:04:38 60° 198° (SSW) 06:08:03 2401.200-2431.200
CUTE-I 30 May 06:22:04 06:26:23 25° 94° (E) 06:30:49 437.470
PRISM 30 May 06:24:34 06:28:16 35° 71° (ENE) 06:32:02 437.425
VERMONT LUNAR 30 May 06:29:18 06:30:48 13° 213° (SSW) 06:32:13 437.305
CUBESAT XI-V 30 May 06:31:32 06:36:09 82° 259° (W) 06:40:48 437.345
M-CUBED/EXP-1 PRIME 30 May 06:32:57 06:36:21 26° 67° (ENE) 06:39:36 437.505
AUBIESAT-1 30 May 06:37:46 06:41:05 25° 67° (ENE) 06:44:17 437.475
Cubesat XI-IV 30 May 06:43:16 06:48:17 40° 97° (E) 06:53:20 437.490
Cosmos 2491 30 May 06:57:36 07:06:26 76° 265° (W) 07:15:10 435.465 / 435.565
AIST 1 30 May 07:02:29 07:06:26 32° 76° (ENE) 07:10:24
STRAND 1 30 May 07:37:52 07:42:44 44° 261° (W) 07:47:36 437.568
PHONESAT 2.4 30 May 07:40:11 07:42:21 16° 212° (SSW) 07:44:27 2401.200-2431.200
YUBILEINY 30 May 07:45:48 07:54:35 83° 277° (W) 08:03:22 435.215
AO-7 30 May 07:49:48 07:53:14 13° 313° (NW) 07:56:12 29.400- 29.500
RS-15 30 May 07:55:18 08:05:19 47° 111° (ESE) 08:15:42 29.354- 29.394
PRISM 30 May 08:01:07 08:03:53 17° 268° (W) 08:06:31 437.425
CUTE-I 30 May 08:01:36 08:06:37 40° 290° (WNW) 08:11:35 437.470
M-CUBED/EXP-1 PRIME 30 May 08:07:49 08:11:10 23° 259° (W) 08:14:15 437.505
AUBIESAT-1 30 May 08:12:30 08:15:50 23° 259° (W) 08:18:54 437.475
PCSat 30 May 08:14:54 08:18:41 19° 45° (NE) 08:22:35 145.827
Cubesat XI-IV 30 May 08:23:47 08:28:13 26° 293° (WNW) 08:32:33 437.490
CANX-2 30 May 08:26:18 08:28:13 13° 90° (E) 08:30:18 2200.000
HO-68 30 May 08:26:56 08:32:08 22° 91° (E) 08:37:35 435.675
CUTE 1.7 + AOD 2 30 May 08:29:23 08:31:10 13° 89° (E) 08:33:10 437.475
GOMX 1 30 May 08:37:48 08:42:29 32° 94° (E) 08:46:59 467.674
Cosmos 2504 30 May 08:38:57 08:44:40 22° 85° (E) 08:50:28 435.465 / 435.565
AIST 1 30 May 08:40:38 08:43:54 20° 271° (W) 08:47:02
SEEDS 30 May 08:45:37 08:48:09 16° 91° (E) 08:50:50 437.485
COMPASS 1 30 May 08:53:03 08:55:27 15° 91° (E) 08:58:02 437.405
BRITE-PL 30 May 08:53:16 08:58:54 74° 100° (E) 09:04:11 437.365/2234.400
Cosmos 2491 30 May 08:58:03 09:01:58 13° 283° (WNW) 09:05:12 435.465 / 435.565
AAUSAT CUBESAT 2 30 May 09:01:52 09:04:28 17° 91° (E) 09:07:13 437.432
DOVE 4 30 May 09:20:41 09:25:38 55° 98° (E) 09:30:17 437.250
TIGRISAT 30 May 09:36:25 09:39:30 18° 67° (ENE) 09:42:44 435.000
UWE-3 30 May 09:40:11 09:42:32 15° 90° (E) 09:45:03 435.000/436.395/437.385
FUNcube-1 30 May 09:41:25 09:42:25 11° 88° (E) 09:43:41 145.935
YUBILEINY 30 May 09:47:45 09:53:05 16° 301° (WNW) 09:57:53 435.215
PCSat 30 May 09:57:17 10:02:41 69° 244° (WSW) 10:08:03 145.827
QB50P2 30 May 09:57:24 09:59:20 13° 65° (ENE) 10:01:29 145.880/145.840
UNISAT 6 30 May 09:57:26 10:01:29 30° 70° (ENE) 10:05:33 437.425
CANX-2 30 May 10:00:24 10:04:29 48° 286° (WNW) 10:08:32 2200.000
CUTE 1.7 + AOD 2 30 May 10:03:22 10:07:27 50° 286° (WNW) 10:11:31 437.475
DUCHIFAT 1 30 May 10:06:56 10:09:26 16° 66° (ENE) 10:12:07 145.980
RS-15 30 May 10:07:05 10:17:40 52° 313° (NW) 10:28:31 29.354- 29.394
SO-50 30 May 10:07:35 10:11:05 19° 42° (NE) 10:14:41 436.795
POPSAT HIP 1 30 May 10:07:55 10:10:35 17° 67° (ENE) 10:13:24 437.405
CINEMA 3 30 May 10:08:55 10:13:36 85° 101° (E) 10:18:01 145.822/145.860
HO-68 30 May 10:13:24 10:20:29 66° 289° (WNW) 10:27:32 435.675
BUGSAT 1 30 May 10:14:01 10:15:45 13° 65° (ENE) 10:17:43 437.445
GOMX 1 30 May 10:15:57 10:20:32 29° 292° (WNW) 10:24:48 467.674
UKube-1 30 May 10:17:01 10:18:41 12° 90° (E) 10:20:35 .
SEEDS 30 May 10:20:15 10:24:09 39° 288° (WNW) 10:28:02 437.485
ZACube-1 30 May 10:21:14 10:25:06 33° 96° (E) 10:28:56 437.345
Oscar 11 30 May 10:24:50 10:29:08 69° 100° (E) 10:33:24 145.826/435.025
COMPASS 1 30 May 10:27:28 10:31:22 40° 287° (WNW) 10:35:14 437.405
Cosmos 2504 30 May 10:29:16 10:37:31 69° 280° (W) 10:45:13 435.465 / 435.565
DX 1 30 May 10:30:07 10:33:14 19° 93° (E) 10:36:27 434.975-435.025
BRITE-PL 30 May 10:33:25 10:36:44 16° 298° (WNW) 10:39:45 437.365/2234.400
CUBEBUG 2 30 May 10:35:38 10:40:03 82° 101° (ESE) 10:44:18 437.445
AAUSAT CUBESAT 2 30 May 10:36:26 10:40:16 36° 288° (WNW) 10:44:03 437.432
DELFI C3 30 May 10:38:28 10:42:29 72° 101° (E) 10:46:30 145.870
ANTELSAT 30 May 10:40:09 10:44:51 86° 81° (E) 10:49:30 437.575/2403.000
